Location: Burland Observatory
(39.4088°N, 105.4217°W)
Time: 11:57:49
(UTC-06:00)

Hubble Space Telescope - Visible Passes

Search period start: 20 March 2019 00:00
Search period end: 30 March 2019 00:00
Orbit: 537 x 540 km, 28.5° (Epoch: 19 March)

Date Brightness Start Highest point End Pass type
(mag) Time Alt. Az. Time Alt. Az. Time Alt. Az.
24 Mar 3.0 20:37:40 10° S 20:38:49 11° SSE 20:38:49 11° SSE visible
25 Mar 2.8 20:26:27 10° SSW 20:28:23 13° SSE 20:29:10 12° SSE visible
26 Mar 2.8 20:15:30 10° SSW 20:17:46 14° S 20:19:27 12° SE visible
27 Mar 2.8 20:04:39 10° SSW 20:07:10 16° S 20:09:40 10° SE visible
27 Mar 3.5 21:44:58 10° SW 21:45:02 10° SW 21:45:02 10° SW visible
28 Mar 2.7 19:53:54 10° SW 19:56:34 17° S 19:59:14 10° SE visible
28 Mar 3.3 21:34:30 10° SW 21:35:13 13° SW 21:35:13 13° SW visible
29 Mar 2.7 19:43:13 10° SW 19:45:58 17° S 19:48:44 10° SE visible
29 Mar 3.1 21:24:05 10° SW 21:25:23 14° SSW 21:25:23 14° SSW visible
